Tracking 19485 objects as of 21-Jan-2019
HD Live streaming from Space Station
objects crossing your sky now

HOT BIRD 1

Track HOT BIRD 1 now!
HOT BIRD 1 is classified as:


NORAD ID: 23537
Int'l Code: 1995-016B
Perigee: 36,047.4 km
Apogee: 36,080.9 km
Inclination: 9.8 °
Period: 1,449.9 minutes
Semi major axis: 42435 km
RCS: 7.9621 m2 (large)
Launch date: March 28, 1995
Source: European Telecommunications Satellite Organization (EUTE)
Launch site: FRENCH GUIANA (FRGUI)

Cable programming; direct-to-home broadcasting; 16 channels, Western Europe
aabbcc
Your satellite tracking list
Your tracking list is empty




NASA's NSSDC Master Catalog

Two Line Element Set (TLE):
1 23537U 95016B   19020.71823420 +.00000044 +00000-0 +00000-0 0  9998
2 23537 009.7754 040.5967 0003951 324.8677 049.1274 00.99314911086851
Source of the keplerian elements: AFSPC